Cut Bank, MT

5:56 AM MDT on October 20, 2019 (GMT -0600)
Cut Bank Municipal

Weather History for KCTB - August, 2019

Change the Weather History Date:

Monday, August 19, 2019

  Actual Average Record
Temperature  
Mean Temperature 68 °F 63 °F  
Max Temperature 84 °F 79 °F 93 °F (1917)
Min Temperature 52 °F 48 °F 31 °F (1950)
Degree Days  
Heating Degree Days 0 4  
Month to date heating degree days 43 49  
Since 1 June heating degree days 358 368  
Since 1 July heating degree days 136 135  
Cooling Degree Days 3 2  
Month to date cooling degree days 45 51  
Year to date cooling degree days 98 140  
Since 1 June cooling degree days 98 138  
Growing Degree Days 18 (Base 50)    
Moisture  
Dew Point 42 °F    
Average Humidity 42    
Maximum Humidity 72    
Minimum Humidity 19    
Precipitation  
Precipitation 0.00 in 0.04 in 1.92 in (1936)
Month to date precipitation 1.19 0.71  
Year to date precipitation 8.60 8.18  
Sea Level Pressure  
Sea Level Pressure 29.83 in    
Wind  
Wind Speed 10 mph ()    
Max Wind Speed 21 mph    
Max Gust Speed 26 mph    
Visibility 10.0 miles    
Events      
T = Trace of Precipitation, MM = Missing Value Source: Averaged Metar Reports

Daily Weather History Graph

Daily Weather History Graph

Search for Another Location

Airport or City:

Astronomy

Aug. 19, 2019 Rise Set
Actual Time 6:28 AM MDT 8:37 PM MDT
Civil Twilight 5:54 AM MDT 9:11 PM MDT
Nautical Twilight 5:11 AM MDT 9:53 PM MDT
Astronomical Twilight 4:23 AM MDT 10:41 PM MDT
Moon 10:41 PM MDT (8/19) 10:29 AM MDT (8/19)
Length of Visible Light 15h 17m
Length of Day
14h 08m
Waning Gibbous, 85% of the Moon is Illuminated
Aug 19
Waning Gibbous
Aug 23
Last Quarter
Aug 30
New
Sep 5
First Quarter
Sep 13
Full

Hourly Weather History & Observations

Time (MDT) Temp. Dew Point Humidity Pressure Visibility Wind Dir Wind Speed Gust Speed Precip Events Conditions
12:56 AM 59.0 °F 45.0 °F 60% 29.74 in 10.0 mi WSW 8.1 mph - N/A   Clear
1:56 AM 60.1 °F 44.1 °F 55% 29.73 in 10.0 mi WSW 11.5 mph - N/A   Clear
2:56 AM 59.0 °F 44.1 °F 58% 29.73 in 10.0 mi WSW 10.4 mph - N/A   Clear
3:56 AM 57.9 °F 43.0 °F 58% 29.73 in 10.0 mi West 9.2 mph - N/A   Clear
4:56 AM 55.0 °F 44.1 °F 67% 29.75 in 10.0 mi West 9.2 mph - N/A   Clear
5:56 AM 57.0 °F 44.1 °F 62% 29.75 in 10.0 mi WNW 8.1 mph - N/A   Clear
6:56 AM 54.0 °F 44.1 °F 69% 29.78 in 10.0 mi WNW 11.5 mph - N/A   Clear
7:56 AM 64.0 °F 43.0 °F 46% 29.77 in 10.0 mi West 12.7 mph - N/A   Clear
8:56 AM 71.1 °F 41.0 °F 34% 29.79 in 10.0 mi West 15.0 mph - N/A   Clear
10:56 AM 77.0 °F 39.0 °F 25% 29.81 in 10.0 mi West 17.3 mph - N/A   Clear
11:56 AM 80.1 °F 35.1 °F 20% 29.81 in 10.0 mi WNW 19.6 mph 25.3 mph N/A   Clear
12:56 PM 81.0 °F 37.0 °F 21% 29.81 in 10.0 mi West 19.6 mph 25.3 mph N/A   Clear
1:56 PM 82.0 °F 39.0 °F 22% 29.82 in 10.0 mi WSW 11.5 mph 24.2 mph N/A   Clear
2:56 PM 82.0 °F 37.9 °F 21% 29.82 in 10.0 mi WSW 16.1 mph 21.9 mph N/A   Clear
3:56 PM 84.0 °F 37.0 °F 19% 29.82 in 10.0 mi West 11.5 mph - N/A   Clear
4:56 PM 84.0 °F 37.9 °F 19% 29.83 in 10.0 mi West 11.5 mph - N/A   Clear
5:56 PM 82.0 °F 37.9 °F 21% 29.84 in 10.0 mi West 12.7 mph - N/A   Clear
6:56 PM 79.0 °F 42.1 °F 27% 29.86 in 10.0 mi WNW 5.8 mph - N/A   Clear
7:56 PM 75.9 °F 42.1 °F 30% 29.86 in 10.0 mi North 12.7 mph 18.4 mph N/A   Clear
8:16 PM 72.0 °F 45.0 °F 38% 29.97 in 10.0 mi NE 13.8 mph - N/A   Clear
8:56 PM 66.9 °F 45.0 °F 45% 29.90 in 10.0 mi NNE 11.5 mph - N/A   Clear
9:56 PM 62.1 °F 45.0 °F 53% 29.95 in 10.0 mi NNE 12.7 mph - N/A   Clear
10:56 PM 60.1 °F 44.1 °F 55% 29.99 in 10.0 mi North 9.2 mph - N/A   Clear
11:56 PM 54.0 °F 45.0 °F 72% 30.03 in 10.0 mi NNW 10.4 mph - N/A   Clear